This is the latest recevied weather packets stored in our database for station/object KB9PMA-1. If no packets are shown the sender has not sent any weather packets the latest 10 day(s).
| Time | Temp. | Humidity | Pressure | Rain* | Wind** | Luminosity | Snow |
|---|---|---|---|---|---|---|---|
| 1777910579 | 21.11° C | 57% | 1007 hPa | 0 mm | - | - | - |
| 1777910279 | 21.11° C | 57% | 1007.1 hPa | 0 mm | - | - | - |
| 1777909979 | 21.11° C | 57% | 1007.2 hPa | 0 mm | - | - | - |
| 1777909679 | 21.11° C | 56% | 1007.2 hPa | 0 mm | - | - | - |
| 1777909379 | 20.56° C | 59% | 1007.3 hPa | 0 mm | - | - | - |
| 1777909079 | 20.56° C | 60% | 1007.3 hPa | 0 mm | - | - | - |
| 1777908779 | 20° C | 61% | 1007.4 hPa | 0 mm | - | - | - |
| 1777908479 | 20° C | 59% | 1007.4 hPa | 0 mm | - | - | - |
| 1777908180 | 20° C | 61% | 1007.4 hPa | 0 mm | - | - | - |
| 1777907880 | 19.44° C | 61% | 1007.5 hPa | 0 mm | - | - | - |
| 1777907580 | 19.44° C | 59% | 1007.5 hPa | 0 mm | - | - | - |
| 1777907280 | 19.44° C | 63% | 1007.4 hPa | 0 mm | - | - | - |
| 1777906980 | 18.89° C | 63% | 1007.5 hPa | 0 mm | - | - | - |
| 1777906680 | 18.33° C | 63% | 1007.6 hPa | 0 mm | - | - | - |
| 1777906384 | 18.33° C | 63% | 1007.6 hPa | 0 mm | - | - | - |
| 1777906080 | 18.33° C | 66% | 1007.5 hPa | 0 mm | - | - | - |
| 1777905780 | 18.33° C | 66% | 1007.6 hPa | 0 mm | - | - | - |
| 1777905479 | 17.78° C | 65% | 1007.5 hPa | 0 mm | - | - | - |
| 1777905180 | 17.78° C | 65% | 1007.7 hPa | 0 mm | - | - | - |
| 1777904880 | 17.78° C | 66% | 1007.6 hPa | 0 mm | - | - | - |
| 1777904580 | 17.22° C | 66% | 1007.6 hPa | 0 mm | - | - | - |
| 1777904280 | 17.22° C | 68% | 1007.6 hPa | 0 mm | - | - | - |
| 1777903980 | 17.22° C | 69% | 1007.9 hPa | 0 mm | - | - | - |
| 1777903680 | 16.67° C | 70% | 1007.9 hPa | 0 mm | - | - | - |
| 1777903380 | 16.67° C | 69% | 1007.9 hPa | 0 mm | - | - | - |
* Rain latest hour (hover to see other rain measurements)
** Current wind speed in m/s (hover to see current wind gust speed)